Location: Unspecified
(0.0000°N, 0.0000°E)
Time: 07:36:04
(UTC+00:00)

Envisat - Pass Details

Date: 10 October 2019
Orbit: 764 x 766 km, 98.1° (Epoch: 15 October)

Event Time Altitude Azimuth Distance (km) Brightness Sun altitude
Rises 18:27:35 0° 166° (SSE) 3,230 6.2 -10.1°
Reaches altitude 10° 18:29:54 10° 165° (SSE) 2,302 5.4 -10.6°
Maximum altitude 18:34:59 80° 78° (ENE) 779 2.9 -11.9°
Drops below altitude 10° 18:40:02 10° 351° (N) 2,291 5.5 -13.2°
Sets 18:42:19 0° 350° (N) 3,214 6.3 -13.7°
